Vicksburg, LA

6:17 AM CDT on June 27, 2017 (GMT -0500)
Vicksburg Tallulah Regional

Weather History for KTVR - October, 2012

Change the Weather History Date:

Monday, October 8, 2012

  Actual Average Record
Temperature  
Mean Temperature 50 °F 68 °F  
Max Temperature 62 °F 81 °F 93 °F (1962)
Min Temperature 38 °F 55 °F 35 °F (1952)
Degree Days  
Heating Degree Days 15 2  
Month to date heating degree days 37 9  
Since 1 July heating degree days 41 14  
Cooling Degree Days 0 5  
Month to date cooling degree days 11 44  
Year to date cooling degree days 2343 2141  
Moisture  
Dew Point 45 °F    
Average Humidity 80    
Maximum Humidity 100    
Minimum Humidity 60    
Precipitation  
Precipitation T in 0.15 in 0.72 in (1982)
Month to date precipitation 0.45 1.08  
Year to date precipitation 44.03 40.54  
Sea Level Pressure  
Sea Level Pressure 30.21 in    
Wind  
Wind Speed 5 mph (NNE)    
Max Wind Speed 15 mph    
Max Gust Speed 20 mph    
Visibility 9 miles    
Events Fog , Rain    
T = Trace of Precipitation, MM = Missing Value Source: NWS Daily Summary

Daily Weather History Graph

Daily Weather History Graph

Search for Another Location

Airport or City:

Trip Planner

Search our weather history database for the weather conditions in past years. The results will help you decide how hot, cold, wet, or windy it might be!

Date:

Astronomy

Oct. 08, 2012 Rise Set
Actual Time 7:03 AM CDT 6:39 PM CDT
Civil Twilight 6:38 AM CDT 7:03 PM CDT
Nautical Twilight 6:10 AM CDT 7:32 PM CDT
Astronomical Twilight 5:41 AM CDT 8:00 PM CDT
Moon 12:05 AM CDT (10/8) 2:08 PM CDT (10/8)
Length of Visible Light 12h 25m
Length of Day
11h 36m
Last Quarter, 46% of the Moon is Illuminated
Oct 8
Last Quarter
Oct 15
New
Oct 21
First Quarter
Oct 29
Full
Nov 6
Last Quarter

Hourly Weather History & Observations

Time (CDT) Temp. Dew Point Humidity Pressure Visibility Wind Dir Wind Speed Gust Speed Precip Events Conditions
12:53 AM 53.1 °F 46.9 °F 80% 30.19 in 10.0 mi North 4.6 mph - N/A   Mostly Cloudy
1:53 AM 53.1 °F 44.1 °F 71% 30.19 in 10.0 mi North 8.1 mph - 0.00 in   Mostly Cloudy
2:53 AM 52.0 °F 45.0 °F 77% 30.20 in 10.0 mi North 11.5 mph - N/A   Overcast
3:53 AM 52.0 °F 45.0 °F 77% 30.19 in 10.0 mi North 12.7 mph - N/A   Overcast
4:51 AM 51.8 °F 44.6 °F 76% 30.19 in 10.0 mi North 10.4 mph 19.6 mph N/A   Overcast
4:53 AM 51.1 °F 45.0 °F 80% 30.22 in 10.0 mi North 10.4 mph 19.6 mph N/A   Overcast
5:31 AM 48.2 °F 44.6 °F 87% 30.20 in 10.0 mi North 11.5 mph - 0.00 in Rain Light Rain
5:53 AM 48.9 °F 45.0 °F 86% 30.22 in 10.0 mi North 9.2 mph - 0.00 in   Overcast
6:53 AM 48.9 °F 46.0 °F 90% 30.24 in 10.0 mi NNE 5.8 mph - 0.00 in   Overcast
7:13 AM 48.2 °F 46.4 °F 93% 30.22 in 10.0 mi North 8.1 mph - N/A   Overcast
7:53 AM 50.0 °F 46.9 °F 89% 30.25 in 10.0 mi North 4.6 mph - N/A   Overcast
8:53 AM 52.0 °F 46.9 °F 83% 30.27 in 10.0 mi NNE 8.1 mph - N/A   Overcast
9:53 AM 54.0 °F 46.9 °F 77% 30.27 in 10.0 mi NNE 8.1 mph - N/A   Overcast
10:22 AM 55.4 °F 46.4 °F 72% 30.25 in 10.0 mi NNE 6.9 mph - N/A   Overcast
10:36 AM 55.4 °F 46.4 °F 72% 30.25 in 10.0 mi NNE 6.9 mph - N/A   Overcast
10:53 AM 57.0 °F 46.9 °F 69% 30.27 in 10.0 mi NNE 3.5 mph - N/A   Overcast
11:53 AM 61.0 °F 46.9 °F 60% 30.25 in 10.0 mi North 6.9 mph - N/A   Scattered Clouds
12:53 PM 60.1 °F 46.9 °F 62% 30.24 in 10.0 mi NNE 4.6 mph - N/A   Mostly Cloudy
1:53 PM 61.0 °F 46.9 °F 60% 30.21 in 10.0 mi NNE 6.9 mph - N/A   Mostly Cloudy
2:53 PM 60.1 °F 46.9 °F 62% 30.19 in 10.0 mi North 8.1 mph - N/A   Overcast
3:53 PM 61.0 °F 46.0 °F 58% 30.17 in 10.0 mi North 6.9 mph - N/A   Mostly Cloudy
4:53 PM 61.0 °F 46.0 °F 58% 30.17 in 10.0 mi Variable 4.6 mph - N/A   Partly Cloudy
5:53 PM 57.9 °F 46.9 °F 67% 30.18 in 10.0 mi NNW 3.5 mph - N/A   Scattered Clouds
6:53 PM 51.1 °F 46.9 °F 86% 30.17 in 10.0 mi ENE 3.5 mph - N/A   Clear
7:53 PM 44.1 °F 43.0 °F 96% 30.17 in 10.0 mi Calm Calm - N/A   Clear
8:53 PM 42.1 °F 41.0 °F 96% 30.18 in 9.0 mi Calm Calm - N/A   Clear
9:53 PM 41.0 °F 39.9 °F 96% 30.18 in 7.0 mi Calm Calm - N/A   Clear
10:53 PM 39.0 °F 37.9 °F 96% 30.18 in 8.0 mi Calm Calm - N/A   Clear
11:08 PM 39.2 °F 37.4 °F 93% 30.16 in 0.5 mi Calm Calm - N/A Fog Fog
11:53 PM 37.9 °F 37.9 °F 100% 30.18 in 0.5 mi Calm Calm - N/A Fog Fog